| time (UTC) | temp C | wind direction | speed KPH | gust KPH | rain 1hr cm | rain 24hr cm | rain mn cm | humidity % | barometer mb |
| 20260502181536 | 13 | 272 | 0.0 | 0.0 | 0.00 | 0.00 | 0.00 | 47 | 1020.9 |
| 20260502163031 | 17 | 301 | 0.0 | 0.0 | 0.00 | 0.00 | 0.00 | 45 | 1020.3 |
| 20260502161529 | 18 | 323 | 0.0 | 1.6 | 0.00 | 0.00 | 0.00 | 43 | 1020.3 |
| 20260502151527 | 20 | 306 | 0.0 | 0.0 | 0.00 | 0.00 | 0.00 | 38 | 1020.6 |
| 20260502123005 | 18 | 330 | 0.0 | 1.6 | 0.00 | 0.00 | 0.00 | 33 | 1022.1 |
| 20260502121501 | 18 | 283 | 0.0 | 3.2 | 0.00 | 0.00 | 0.00 | 36 | 1022.5 |
| 20260502120114 | 17 | 294 | 0.0 | 3.2 | 0.00 | 0.00 | 0.00 | 40 | 1022.6 |
| 20260502114607 | 17 | 303 | 0.0 | 0.0 | 0.00 | 0.00 | 0.00 | 41 | 1022.8 |
| 20260502113110 | 17 | 299 | 0.0 | 3.2 | 0.00 | 0.00 | 0.00 | 42 | 1023.0 |
| 20260502111549 | 16 | 264 | 0.0 | 1.6 | 0.00 | 0.00 | 0.00 | 40 | 1023.3 |
| 20260502110048 | 16 | 321 | 0.0 | 3.2 | 0.00 | 0.00 | 0.00 | 41 | 1023.5 |
| 20260502104543 | 16 | 321 | 0.0 | 1.6 | 0.00 | 0.00 | 0.00 | 43 | 1023.7 |
| 20260502103101 | 15 | 287 | 0.0 | 1.6 | 0.00 | 0.00 | 0.00 | 45 | 1023.8 |
| 20260502101548 | 15 | 290 | 0.0 | 3.2 | 0.00 | 0.00 | 0.00 | 45 | 1024.1 |
| 20260502071518 | 7 | 121 | 0.0 | 0.0 | 0.00 | 0.00 | 0.00 | 1 | 1027.0 |
| 20260502070015 | 6 | 121 | 0.0 | 0.0 | 0.00 | 0.00 | 0.00 | 1 | 1027.2 |
| 20260502064507 | 4 | 121 | 0.0 | 0.0 | 0.00 | 0.00 | 0.00 | 1 | 1027.4 |
| 20260502063002 | 3 | 121 | 0.0 | 0.0 | 0.00 | 0.00 | 0.00 | 1 | 1027.6 |
| 20260502061600 | 2 | 121 | 0.0 | 0.0 | 0.00 | 0.00 | 0.00 | 1 | 1027.8 |
| 20260502060106 | 2 | 121 | 0.0 | 0.0 | 0.00 | 0.00 | 0.00 | 1 | 1027.9 |
| 20260502054607 | 2 | 121 | 0.0 | 0.0 | 0.00 | 0.00 | 0.00 | 1 | 1027.9 |
| 20260502053050 | 2 | 121 | 0.0 | 0.0 | 0.00 | 0.00 | 0.00 | 1 | 1027.9 |
| 20260502051542 | 2 | 121 | 0.0 | 0.0 | 0.00 | 0.00 | 0.00 | 1 | 1028.0 |
| 20260502050045 | 2 | 121 | 0.0 | 0.0 | 0.00 | 0.00 | 0.00 | 1 | 1027.9 |
| 20260502044533 | 2 | 121 | 0.0 | 0.0 | 0.00 | 0.00 | 0.00 | 1 | 1027.8 |
| 20260502043030 | 2 | 121 | 0.0 | 0.0 | 0.00 | 0.00 | 0.00 | 1 | 1027.8 |
| 20260502041532 | 2 | 121 | 0.0 | 0.0 | 0.00 | 0.00 | 0.00 | 1 | 1027.9 |
| 20260502040021 | 2 | 121 | 0.0 | 0.0 | 0.00 | 0.00 | 0.00 | 1 | 1027.8 |
| 20260502034518 | 2 | 121 | 0.0 | 0.0 | 0.00 | 0.00 | 0.00 | 1 | 1027.8 |
| 20260502033012 | 2 | 121 | 0.0 | 0.0 | 0.00 | 0.00 | 0.00 | 1 | 1027.8 |
| 20260502031508 | 2 | 121 | 0.0 | 0.0 | 0.00 | 0.00 | 0.00 | 1 | 1027.8 |
| 20260502030006 | 2 | 121 | 0.0 | 0.0 | 0.00 | 0.00 | 0.00 | 1 | 1027.9 |
| 20260502024559 | 2 | 121 | 0.0 | 0.0 | 0.00 | 0.00 | 0.00 | 1 | 1027.9 |
| 20260502023059 | 3 | 121 | 0.0 | 0.0 | 0.00 | 0.00 | 0.00 | 1 | 1027.8 |
| 20260502021554 | 3 | 121 | 0.0 | 0.0 | 0.00 | 0.00 | 0.00 | 1 | 1027.8 |
| 20260502020046 | 3 | 121 | 0.0 | 0.0 | 0.00 | 0.00 | 0.00 | 1 | 1027.8 |
| 20260502014541 | 3 | 121 | 0.0 | 0.0 | 0.00 | 0.00 | 0.00 | 1 | 1027.8 |
| 20260502013037 | 3 | 121 | 0.0 | 0.0 | 0.00 | 0.00 | 0.00 | 1 | 1027.9 |
| 20260502011533 | 3 | 121 | 0.0 | 0.0 | 0.00 | 0.00 | 0.00 | 1 | 1027.9 |
| 20260502010029 | 3 | 121 | 0.0 | 0.0 | 0.00 | 0.00 | 0.00 | 1 | 1027.9 |
| 20260502004524 | 3 | 121 | 0.0 | 0.0 | 0.00 | 0.00 | 0.00 | 1 | 1028.0 |
| 20260502003019 | 3 | 121 | 0.0 | 0.0 | 0.00 | 0.00 | 0.00 | 1 | 1027.9 |
| 20260502001516 | 3 | 121 | 0.0 | 0.0 | 0.00 | 0.00 | 0.00 | 1 | 1028.0 |
| 20260502000011 | 4 | 121 | 0.0 | 0.0 | 0.00 | 0.00 | 0.00 | 1 | 1028.0 |
| 20260501234506 | 4 | 121 | 0.0 | 0.0 | 0.00 | 0.00 | 0.00 | 1 | 1028.1 |
| 20260501233002 | 4 | 121 | 0.0 | 0.0 | 0.00 | 0.00 | 0.00 | 1 | 1028.0 |
| 20260501231558 | 4 | 121 | 0.0 | 0.0 | 0.00 | 0.00 | 0.00 | 1 | 1027.9 |
| 20260501230054 | 5 | 121 | 0.0 | 0.0 | 0.00 | 0.00 | 0.00 | 1 | 1027.9 |
| 20260501224551 | 5 | 121 | 0.0 | 0.0 | 0.00 | 0.00 | 0.00 | 1 | 1028.0 |
| 20260501223055 | 5 | 121 | 0.0 | 0.0 | 0.00 | 0.00 | 0.00 | 1 | 1027.8 |
| 20260501221541 | 5 | 121 | 0.0 | 0.0 | 0.00 | 0.00 | 0.00 | 1 | 1027.9 |
| 20260501220037 | 5 | 121 | 0.0 | 0.0 | 0.00 | 0.00 | 0.00 | 1 | 1027.7 |
| 20260501214535 | 5 | 121 | 0.0 | 0.0 | 0.00 | 0.00 | 0.00 | 4 | 1027.5 |
| 20260501213027 | 6 | 121 | 0.0 | 1.6 | 0.00 | 0.00 | 0.00 | 6 | 1027.4 |
| 20260501211523 | 6 | 121 | 0.0 | 0.0 | 0.00 | 0.00 | 0.00 | 10 | 1027.2 |
| 20260501210018 | 6 | 121 | 0.0 | 0.0 | 0.00 | 0.00 | 0.00 | 15 | 1027.1 |
| 20260501204513 | 6 | 121 | 0.0 | 0.0 | 0.00 | 0.00 | 0.00 | 16 | 1027.0 |
| 20260501203021 | 7 | 121 | 0.0 | 0.0 | 0.00 | 0.00 | 0.00 | 21 | 1026.8 |
| 20260501201506 | 7 | 121 | 0.0 | 0.0 | 0.00 | 0.00 | 0.00 | 24 | 1026.7 |
| 20260501200002 | 7 | 121 | 0.0 | 0.0 | 0.00 | 0.00 | 0.00 | 32 | 1026.4 |
| 20260501194557 | 8 | 121 | 0.0 | 0.0 | 0.00 | 0.00 | 0.00 | 32 | 1026.1 |
| 20260501193052 | 8 | 123 | 0.0 | 0.0 | 0.00 | 0.00 | 0.00 | 38 | 1025.9 |
| 20260501191548 | 9 | 360 | 0.0 | 0.0 | 0.00 | 0.00 | 0.00 | 44 | 1025.5 |
| 20260501190044 | 10 | 360 | 0.0 | 0.0 | 0.00 | 0.00 | 0.00 | 49 | 1025.2 |
| 20260501184539 | 10 | 270 | 0.0 | 1.6 | 0.00 | 0.00 | 0.00 | 51 | 1024.8 |
| 20260501183035 | 11 | 360 | 0.0 | 0.0 | 0.00 | 0.00 | 0.00 | 52 | 1024.4 |